Regional Weather Roundup
Issued by NWS Northern Indiana

Home | Current Version | Previous Version | Graphics & Text | Print | Product List | Glossary On
Versions: 1 2 3 4 5 6 7 8 9 10 11 12 13 14 15 16 17 18 19 20 21 22 23 24 25 26 27 28 29 30 31 32 33 34 35 36 37 38 39 40 41 42 43 44 45 46 47 48 49 50
000
ASUS43 KIWX 241610
RWRIWX

KIWX WEATHER ROUNDUP
NATIONAL WEATHER SERVICE NORTHERN INDIANA
1200 PM EDT SAT JUN 24 2017

NOTE: "FAIR" INDICATES FEW OR NO CLOUDS BELOW 12,000 FEET WITH NO
SIGNIFICANT WEATHER AND/OR OBSTRUCTIONS TO VISIBILITY.

* THESE STATIONS ARE NOT UNDER NWS QUALITY CONTROL. THEY ALSO MAY NOT
  REPORT WEATHER SUCH AS PRECIPITATION OR FOG.

INZ001>027-241700-
NORTHERN INDIANA

CITY           SKY/WX    TMP DP  RH WIND       PRES   REMARKS
GARY*          MOSUNNY   72  52  49 W12G23    29.97R
VALPARAISO     MOSUNNY   73  56  54 W13       29.97R
MICHIGAN CITY* CLOUDY    70  54  56 NW9       29.98R
LAPORTE*       SUNNY     70  55  59 NW8       29.97S
KNOX*          MOSUNNY   70  46  43 W10       29.97R
SOUTH BEND     MOSUNNY   70  56  61 NW13      29.96R
ELKHART*       MOSUNNY   70  55  60 W15       29.95R
GOSHEN         PTSUNNY   69  55  60 W14G23    29.94R
MONTICELLO*    MOSUNNY   71  58  62 W12G18    29.98R
LOGANSPORT*    MOSUNNY   70  57  64 W12G21    29.99R
ROCHESTER*     MOSUNNY   73  55  53 W10G20    29.97R
WARSAW*        MOSUNNY   70  55  60 W12G17    29.95R
AUBURN*        MOSUNNY   72  54  53 W10       29.95R
FORT WAYNE     MOSUNNY   73  56  54 W15       29.95R
HUNTINGTON*    MOSUNNY   71  56  57 W13G18    29.96R
PERU/GRISSOM   MOSUNNY   72  61  67 W18       29.97R
MARION*        MOSUNNY   72  57  60 W12       29.99R

$$
INZ028>050-241700-
CENTRAL INDIANA

CITY           SKY/WX    TMP DP  RH WIND       PRES   REMARKS
LAFAYETTE      PTSUNNY   71  60  68 W13       29.99R
KOKOMO*        PTSUNNY   72  60  66 W14       29.99R
MUNCIE*        MOSUNNY   73  57  57 W9        29.98R
INDIANAPOLIS   MOSUNNY   73  57  57 W13G20    30.00R

$$
MIZ043>046-050>051-056>058-064>065-071>073-077>080-241700-
SOUTHWEST LOWER MICHIGAN

CITY           SKY/WX    TMP DP  RH WIND       PRES   REMARKS
BATTLE CREEK   PTSUNNY   71  55  56 W14       29.92R
BENTON HARBOR  PTSUNNY   67  55  65 W15G21    29.96R
COLDWATER*     CLOUDY    71  55  57 W9        29.92S
HILLSDALE*     CLOUDY    70  54  56 W8G18     29.91S
HOLLAND        CLOUDY    65  56  72 W10       29.94R
GRAND RAPIDS   PTSUNNY   71  58  63 W16G24    29.89R
KALAMAZOO      MOSUNNY   72  54  53 W12G22    29.92R
STURGIS*       CLOUDY    71  56  59 W13G18    29.93R
THREE RIVERS*  PTSUNNY   72  55  54 W15G21    29.93R

$$
OHZ001>008-015>018-024>025-241700-
NORTHWEST OHIO

CITY           SKY/WX    TMP DP  RH WIND       PRES   REMARKS
WAUSEON*       FAIR      75  55  50 W17       29.91R
DEFIANCE       MOSUNNY   71  54  54 W13G22    29.92S
FINDLAY        SUNNY     75  56  51 W13       29.91S
TOLEDO EXPRESS SUNNY     74  55  51 W16       29.90R
TOLEDO METCALF SUNNY     76  54  46 W16       29.90R
LIMA           SUNNY     72  57  59 W15       29.94R

$$
AND FOR LAKE MICHIGAN COASTAL AND OPEN LAKE BUOY OBSERVATIONS

STATION/POSITION TEMP    WIND        PRES    VSBY  WAVE
                 AIR SEA DIR/SP/G                  HT/PER
                 (F)     (DEG/KT/KT) (MB)    (MI)  (FT/S)
CALUMET HARBOR    70     230/  7/ 15 1014.2R
MICHIGAN CITY     65     260/  9/ 10   N/A
BURNS HARBOR      66     300/  7/  9 1014.9S
SOUTH LAKE BUOY   62 61  290/  8/ 10 1013.7R         2/ 4
4 MI NW BRIDGMAN  64 68  300/ 12/ 16 1014.9          4/ 5
MICHIGAN CITY     66 68  290/ 10/ 12   N/A           2/ 5

$$
&&




USA.gov is the U.S. government's official web portal to all federal, state and local government web resources and services.